Temp
20 19 20 22 22 23 24 25 25 27 29 28 27 27 24 24 23 23 23 23 23 23 24 24 23 23 22 22 22 23 23 24 23 23 22 23 23 24 24 25 25 25 24 24
19 19 21 23 22 22 23 24 24 26 29 27 27 27 24 24 24 23 23 23 23 24 24 24 24 23 23 22 23 22 23 24 24 24 23 23 24 24 25 25 25 25 24 24
19 21 23 23 22 22 22 22 24 26 28 29 27 26 24 24 24 24 24 24 24 24 24 24 24 24 24 22 23 23 24 24 24 24 24 23 23 23 24 24 25 25 24 24
20 23 23 22 22 22 19 23 25 25 26 25 27 25 24 24 24 24 24 24 24 24 25 25 24 24 24 24 23 24 24 24 25 25 24 23 23 23 24 25 25 25 25 25
21 22 22 22 23 23 23 24 24 25 24 25 27 25 25 24 23 24 24 24 24 25 25 25 25 24 24 24 23 23 24 24 24 25 25 24 23 24 24 25 25 25 25 25
20 22 23 24 25 25 25 25 23 24 22 23 25 26 24 23 25 25 25 25 25 25 25 25 25 25 25 25 24 23 23 24 24 24 24 24 24 24 24 24 25 25 25 25
16 19 23 24 23 24 24 23 19 20 20 23 25 26 25 25 27 27 26 26 26 25 26 26 25 25 25 25 24 23 23 23 23 23 24 24 24 24 24 25 25 25 25 25
11 18 22 23 22 23 23 22 19 19 20 24 23 23 25 29 28 28 28 28 27 27 26 26 26 26 25 25 25 23 23 23 23 23 23 24 24 24 24 25 25 25 25 25
10 13 15 19 21 24 23 23 22 21 20 20 26 24 27 27 29 27 28 28 28 27 27 27 27 27 26 26 25 24 23 23 23 23 23 23 23 23 24 25 25 25 25 25
12 11 14 17 20 23 24 24 22 19 22 21 22 23 27 25 25 27 27 28 28 28 27 27 27 27 27 26 25 24 24 23 23 23 23 23 23 24 24 25 25 25 25 25
10 11 13 15 18 22 23 24 24 23 20 23 21 23 25 25 27 26 28 27 28 28 28 27 28 28 27 27 26 24 24 23 23 22 22 22 23 23 24 24 25 25 25 25
11 10 11 13 16 17 16 22 22 24 22 19 20 25 27 26 26 27 28 27 28 28 29 28 29 28 28 27 26 25 24 23 23 23 23 23 23 23 23 23 24 25 25 25
10 10 12 13 17 17 18 22 23 21 24 24 24 23 27 26 26 25 27 26 27 28 28 29 29 28 29 27 26 25 24 23 23 23 22 22 22 22 22 23 24 24 25 25
11 10 10 11 15 13 13 15 22 21 24 24 25 25 26 27 27 27 26 25 25 25 26 27 28 28 29 28 26 25 24 24 24 23 23 22 22 22 22 23 23 24 25 25
9 10 10 11 11 11 12 14 16 17 20 24 25 25 26 26 25 24 24 25 26 25 26 26 28 27 27 28 27 25 25 24 24 23 23 23 23 22 23 23 23 24 24 25
9 9 10 9 12 12 13 16 17 17 20 23 25 24 23 25 24 22 21 21 21 24 27 27 28 28 27 28 27 25 25 24 24 24 23 23 23 22 23 23 23 23 23 24
8 9 9 9 14 15 15 17 18 19 18 19 23 22 19 22 20 19 20 20 20 21 25 28 28 28 28 28 28 26 25 24 24 24 23 23 22 22 22 22 22 22 22 23
8 8 9 9 12 17 16 17 20 19 18 18 18 18 20 21 20 20 20 20 20 20 24 28 29 29 29 29 28 27 25 24 24 23 23 23 22 22 22 21 22 22 22 22
10 8 9 9 12 18 18 16 15 15 18 17 18 18 19 21 22 21 20 20 21 21 20 25 29 29 29 29 28 26 25 24 24 23 23 23 22 22 22 21 21 21 21 21
9 8 9 10 12 17 14 15 15 16 16 17 16 19 18 20 21 21 19 20 20 21 20 24 27 29 28 28 27 25 25 24 23 24 23 23 22 22 22 22 22 22 22 21
9 9 9 10 12 15 13 14 15 17 15 15 16 18 18 18 17 17 19 19 20 21 21 21 25 25 26 28 27 25 25 25 24 24 24 24 23 23 23 22 22 22 22 22
10 11 12 12 15 16 13 14 14 13 15 14 15 16 18 18 18 17 18 19 19 19 20 21 20 20 23 26 26 25 25 25 26 25 24 24 23 23 23 23 23 22 22 22
10 9 10 10 11 10 12 11 12 13 13 13 13 15 17 17 17 17 16 17 18 18 18 19 20 20 20 24 25 24 23 25 27 26 25 25 24 24 24 23 23 22 22 22
9 9 9 10 10 10 12 12 12 12 12 13 13 14 16 17 17 17 16 16 16 17 17 17 18 19 19 21 22 23 23 24 26 26 26 26 25 24 24 24 24 23 23 22
8 9 8 9 11 11 13 11 11 12 12 12 13 13 14 16 16 16 15 14 15 16 16 16 17 18 18 20 21 22 23 24 24 24 25 25 24 24 24 24 23 23 23 23
9 9 9 10 10 9 9 10 11 11 11 11 11 12 13 15 15 15 15 14 14 14 15 16 17 17 18 19 20 21 22 23 23 23 23 23 23 22 22 22 20 21 22 23
Height
759 773 768 754 764 765 767 767 769 755 741 750 756 756 760 759 765 768 768 772 775 775 780 788 793 797 802 806 809 813 817 822 828 832 837 841 843 846 848 850 852 855 858 861
767 769 755 757 763 768 769 772 771 756 740 750 755 754 754 756 753 753 757 764 770 775 777 782 787 792 796 799 804 810 813 818 823 829 833 837 841 845 848 849 851 853 856 859
767 756 749 757 763 771 772 776 771 764 751 743 753 762 759 754 753 755 757 760 763 766 772 776 781 785 792 794 798 804 809 814 820 825 831 836 840 844 846 848 850 852 855 857
756 743 748 754 759 763 784 760 761 764 769 783 750 785 759 752 753 752 753 754 756 760 764 770 775 781 784 788 794 799 805 810 815 821 827 831 835 839 842 846 848 851 853 856
753 745 748 755 751 754 757 753 762 763 772 770 760 776 756 746 758 749 745 745 747 750 754 760 764 770 777 786 789 795 800 806 811 815 821 826 831 835 839 843 846 849 851 854
747 733 739 739 735 742 740 751 761 765 778 785 764 765 765 752 739 736 734 735 737 742 746 752 758 767 773 780 784 790 794 799 805 810 815 821 825 830 835 838 842 845 848 851
764 744 729 731 745 737 745 761 800 803 798 768 747 757 747 728 717 718 720 720 724 732 739 744 750 758 765 771 777 782 788 793 798 804 809 814 820 824 829 833 837 840 844 846
795 763 733 726 736 743 742 751 783 800 793 764 755 759 738 707 704 702 703 704 716 725 730 735 742 749 756 762 768 773 779 785 791 797 802 807 814 819 823 828 832 835 838 842
801 780 754 739 728 727 741 747 741 766 769 776 739 737 715 703 702 703 701 704 711 714 719 723 730 738 746 753 757 763 771 777 783 788 796 801 807 812 817 822 828 831 834 839
795 792 765 746 731 717 722 720 753 762 769 779 751 745 727 720 715 705 701 700 701 704 709 715 720 726 733 740 750 759 763 768 774 781 788 794 800 805 810 817 822 827 831 836
799 799 772 762 738 721 724 722 721 727 750 748 767 745 701 705 697 701 692 691 690 694 698 703 707 714 722 733 741 748 757 762 770 775 781 789 793 799 804 809 816 822 827 831
793 799 784 762 731 726 738 716 717 723 741 750 751 727 687 685 687 685 683 684 681 681 684 689 694 703 711 719 729 736 746 753 760 766 773 780 787 792 798 803 808 816 821 825
797 798 777 757 728 720 724 708 705 715 708 719 733 731 684 683 685 683 682 677 676 675 678 681 691 698 702 709 718 727 736 744 752 759 766 774 780 785 791 797 802 808 815 819
791 790 784 767 741 750 746 733 705 713 709 708 705 710 696 686 685 679 679 676 676 676 676 678 684 689 692 700 708 717 727 736 745 753 760 766 772 777 784 790 795 801 807 812
795 783 779 767 762 758 752 741 728 728 710 701 700 696 689 683 681 681 676 672 671 671 670 672 675 679 687 695 702 711 719 728 737 745 752 758 764 771 776 783 787 793 799 803
789 784 772 766 749 744 743 724 719 716 706 697 687 691 682 672 672 678 681 682 678 669 661 660 661 667 677 686 691 698 709 718 728 737 743 750 757 764 768 774 779 785 789 794
786 782 775 764 727 726 733 713 703 702 705 703 696 690 689 683 684 682 675 671 665 660 653 648 650 656 664 673 682 690 699 711 721 729 737 744 750 756 760 767 772 777 781 786
774 777 775 759 738 711 705 696 688 698 702 703 704 697 681 677 676 676 673 668 661 653 637 632 639 645 654 663 674 687 696 704 713 721 729 736 743 749 755 761 765 770 775 778
760 774 765 758 728 695 697 706 711 709 709 707 702 695 686 675 669 672 669 665 657 646 638 629 634 640 650 659 670 680 691 698 707 713 720 726 733 741 748 753 757 763 768 772
760 767 764 748 727 694 714 708 702 699 718 708 709 697 693 674 685 681 672 665 655 643 633 628 634 642 651 660 668 677 685 692 698 703 711 721 728 733 737 743 748 754 760 763
753 754 753 743 721 706 714 704 694 705 733 719 710 702 696 693 699 690 675 664 655 645 639 636 635 642 651 658 667 676 683 685 692 703 710 715 721 725 731 738 744 748 753 758
742 736 721 719 703 705 712 703 715 731 727 722 715 709 700 695 693 688 679 670 662 656 652 650 649 651 654 659 665 673 679 685 692 698 704 709 715 721 727 732 736 741 747 752
744 748 744 740 730 736 727 731 734 733 732 725 721 712 702 699 698 695 690 682 675 670 667 665 663 664 663 664 667 674 680 684 689 695 699 705 710 715 719 724 729 735 740 744
750 746 745 740 741 737 733 735 736 736 732 727 723 717 709 706 704 702 699 695 689 684 682 679 674 672 674 673 674 678 682 683 687 690 695 699 703 708 713 718 723 727 731 735
760 753 754 749 743 736 730 734 735 732 732 728 724 721 717 710 707 707 706 703 699 694 691 689 687 685 685 685 683 683 684 684 685 688 692 696 701 705 709 714 719 722 725 727
763 759 754 750 747 749 745 738 735 731 731 731 729 723 720 718 716 711 710 709 706 702 700 695 692 692 692 691 689 687 686 686 687 690 693 695 697 699 703 708 713 716 719 722
Wind_Speed
5 4 17 27 9 3 3 4 6 4 5 5 9 9 14 14 11 15 17 18 20 22 24 27 26 27 31 33 35 36 36 34 31 29 26 23 21 16 13 12 11 16 15 13
3 12 12 5 6 6 5 3 4 4 3 6 5 13 12 18 22 23 22 20 20 18 19 24 28 28 30 34 38 37 38 36 34 32 30 25 23 19 15 11 10 16 18 14
6 6 11 9 6 10 12 10 6 2 3 5 5 5 6 12 8 14 14 15 17 20 20 20 25 30 29 31 37 39 40 38 37 33 31 24 20 20 18 15 12 15 19 15
7 14 6 10 15 11 10 11 15 8 2 3 4 5 6 10 17 19 16 18 18 19 19 18 22 28 33 31 37 39 41 40 39 36 33 31 26 22 24 22 16 14 16 16
6 4 11 11 17 12 12 7 12 12 4 2 5 0 7 12 12 16 19 20 19 20 20 21 23 31 34 32 33 38 41 40 40 40 38 36 32 28 24 24 20 17 16 15
7 5 4 11 14 17 5 2 5 3 3 11 11 10 6 7 12 17 19 20 20 20 21 20 28 27 29 33 32 35 39 42 40 41 41 40 36 35 29 25 25 24 21 18
8 5 5 10 4 14 10 11 1 3 5 14 8 12 10 7 14 16 22 23 23 21 20 20 20 24 30 33 34 34 37 38 41 42 42 42 41 39 37 33 30 30 25 23
4 6 5 7 14 8 15 12 6 8 5 13 5 8 6 19 10 19 20 23 17 18 20 22 21 28 31 35 37 36 37 37 40 42 43 44 42 42 40 35 31 30 29 25
5 6 11 9 5 13 6 18 10 4 1 2 10 4 7 8 17 15 20 15 16 20 21 22 22 31 34 35 40 41 39 39 40 45 44 41 41 40 39 38 32 30 27 26
3 8 7 11 7 12 16 9 11 4 9 5 4 6 9 8 11 12 13 16 17 19 19 19 19 28 37 39 38 38 41 41 43 43 42 41 41 44 43 40 36 31 28 25
4 4 9 11 7 14 10 14 10 8 6 9 1 5 8 12 15 13 17 16 18 19 20 21 21 32 34 35 37 38 38 37 36 38 39 36 38 39 42 42 39 34 29 26
2 4 7 9 18 9 7 6 10 12 17 3 4 9 4 11 12 10 14 15 17 20 22 22 22 28 31 36 37 39 38 37 39 41 40 41 39 40 40 41 41 36 32 28
7 4 6 7 10 4 5 8 9 3 6 19 15 6 2 6 7 10 11 9 13 19 20 19 16 17 26 32 36 37 38 37 38 37 38 36 35 36 38 40 41 38 34 32
6 6 9 7 4 6 7 12 7 3 8 11 17 10 9 8 5 5 7 8 8 9 13 16 15 17 26 33 33 36 36 37 37 35 36 36 37 37 38 40 40 39 36 35
3 7 12 21 21 17 17 16 14 5 7 11 8 17 13 14 10 10 9 8 8 10 14 17 19 18 19 26 29 33 35 37 37 36 35 37 37 37 40 39 40 40 39 38
5 6 6 11 17 18 19 17 17 14 7 8 6 6 3 4 2 1 4 6 11 15 15 17 22 21 20 28 33 35 35 38 39 37 36 36 35 37 39 40 40 39 40 39
6 3 3 6 5 10 8 11 5 7 10 2 8 2 9 2 4 5 8 10 10 11 18 21 22 22 22 33 35 35 37 36 37 35 34 34 35 36 37 39 37 39 39 37
7 5 3 6 4 10 6 4 14 17 15 14 9 13 11 4 7 4 10 12 13 12 10 17 18 19 32 34 35 28 33 36 36 34 33 33 34 34 33 32 35 35 36 36
10 4 4 3 4 9 3 6 5 5 10 18 15 14 10 9 3 3 15 14 12 12 10 7 15 21 27 30 31 31 31 33 33 33 34 35 36 34 32 33 34 34 32 32
6 7 3 2 5 5 4 11 10 6 5 19 18 15 14 8 3 6 18 15 14 13 8 6 17 20 23 25 30 30 29 31 32 34 34 32 34 35 36 36 36 35 32 31
4 4 13 11 5 3 12 13 8 4 2 15 16 12 12 12 5 12 14 15 15 16 16 15 18 17 23 30 29 25 26 29 27 26 29 33 37 37 34 31 31 29 29 26
1 3 1 3 4 4 18 4 7 1 7 10 14 15 10 11 13 15 16 18 19 19 20 23 16 15 16 27 29 23 22 20 25 30 32 34 33 31 29 32 30 29 28 26
3 3 2 4 4 9 8 11 8 9 5 11 13 15 12 13 12 16 16 17 18 20 20 25 19 20 21 20 23 18 8 14 19 27 31 32 31 32 31 31 27 26 28 26
5 9 3 4 7 11 6 3 11 8 10 11 13 14 14 12 13 13 14 14 15 16 18 22 21 20 19 24 24 18 13 13 18 21 24 27 29 29 28 28 27 25 25 24
4 8 7 3 4 9 4 14 11 14 12 12 12 13 14 12 13 11 11 13 12 17 22 21 18 17 17 18 18 16 14 12 15 13 11 15 21 23 24 22 21 21 22 24
7 3 2 1 10 5 8 12 15 15 14 12 11 15 15 14 10 11 11 11 15 16 23 23 22 19 21 18 17 16 14 11 7 8 8 10 15 19 23 23 15 17 18 18
Wind_Direction
193 154 206 214 205 256 193 211 189 226 228 139 213 212 188 179 182 182 182 188 196 197 193 196 195 191 194 198 202 203 202 205 206 207 207 212 216 219 219 211 213 212 217 220
121 227 228 171 192 223 251 267 256 273 207 175 206 232 190 183 197 191 184 190 200 197 194 195 196 194 192 196 203 204 207 207 207 210 211 211 210 207 207 209 218 213 214 220
179 237 178 186 182 202 230 235 230 157 332 213 132 269 169 206 204 199 205 202 197 197 196 197 197 200 197 195 199 203 209 210 210 211 214 214 215 214 211 207 212 201 208 221
223 245 216 201 209 183 227 202 249 268 357 221 188 259 204 186 202 201 195 199 201 200 199 199 198 202 204 201 203 206 211 210 212 212 215 215 211 206 217 213 209 201 208 222
229 216 205 228 219 188 237 161 214 239 213 272 253 271 269 170 200 205 204 207 203 200 198 200 201 203 204 204 202 205 212 212 213 215 218 219 218 222 224 224 216 212 215 224
235 240 180 239 219 208 201 151 164 130 167 245 223 214 259 193 203 211 211 211 207 202 201 204 205 204 204 206 204 203 207 212 215 216 217 220 219 221 223 224 227 224 221 224
329 258 170 235 299 200 177 172 254 219 208 236 210 213 225 201 207 202 209 213 207 200 203 205 199 198 202 201 204 200 203 204 211 214 218 219 221 225 228 229 230 227 223 222
21 311 182 172 201 208 205 188 170 192 210 235 155 219 235 221 209 210 213 217 199 198 202 207 204 198 203 202 202 200 201 203 205 210 216 221 220 224 228 231 231 227 224 225
344 262 329 277 294 206 209 209 184 116 241 203 215 250 296 208 211 209 225 214 200 200 201 204 202 201 202 203 201 199 200 203 203 209 214 215 218 219 224 231 231 228 224 226
9 300 271 295 294 252 215 164 206 207 213 242 268 199 213 189 219 219 227 207 209 204 202 201 199 199 200 201 202 201 201 201 203 206 210 213 215 222 226 231 230 227 226 225
153 204 290 321 217 206 213 207 210 177 182 222 308 254 201 189 195 209 226 196 208 203 200 201 203 201 196 197 197 198 200 200 201 202 205 207 211 217 222 227 230 228 226 227
129 278 271 259 266 305 310 244 186 203 213 202 138 239 215 195 202 208 221 197 205 204 203 204 204 194 189 191 192 194 195 196 199 202 202 205 209 212 216 222 229 229 226 225
170 224 280 284 264 222 199 234 231 137 185 221 218 241 233 217 241 235 235 211 201 207 209 208 202 196 195 189 189 190 192 196 197 197 199 202 204 205 211 217 226 228 228 227
189 231 228 253 306 12 324 327 243 258 217 214 223 236 237 258 215 260 238 252 214 201 199 200 200 201 194 191 185 186 189 193 194 195 196 199 202 204 209 217 222 227 228 228
162 252 257 264 268 276 270 269 279 257 259 215 190 219 222 228 238 218 230 261 264 221 203 192 197 193 196 188 182 183 188 188 189 191 194 200 202 205 211 214 219 227 228 229
181 265 272 264 258 247 252 254 244 241 255 253 233 237 13 285 135 101 236 231 246 240 235 206 197 189 185 188 185 181 184 185 186 190 195 198 199 201 208 214 218 221 228 231
192 236 246 265 287 197 241 238 229 91 51 359 233 326 311 285 86 18 350 329 303 264 225 218 196 186 183 187 185 183 182 179 184 189 194 196 197 200 206 212 214 218 220 225
173 216 230 276 294 187 139 60 71 98 62 38 6 339 313 194 168 86 18 352 323 303 252 201 192 183 187 186 187 175 172 176 181 187 191 193 195 200 202 205 212 217 219 220
179 191 265 253 265 116 115 36 10 12 48 21 360 358 340 306 280 266 2 352 333 316 279 187 189 185 175 178 174 168 169 174 178 187 192 193 194 197 198 203 210 215 216 220
177 196 228 290 243 150 44 325 324 237 49 1 354 12 0 1 67 335 338 341 353 358 350 145 148 153 158 164 162 161 169 174 185 191 194 192 195 199 200 206 210 215 216 219
179 202 216 227 278 121 347 327 304 90 347 342 349 356 25 52 12 307 337 4 13 24 26 40 115 133 151 156 157 162 171 190 187 186 190 197 203 204 207 207 209 210 213 217
124 257 246 251 218 73 342 30 67 2 13 2 359 355 14 46 24 9 9 16 18 26 29 37 54 68 123 161 160 162 178 189 191 195 195 201 203 200 203 208 208 209 208 209
46 329 286 3 34 319 69 74 45 16 358 15 357 352 9 38 29 22 12 16 22 21 21 27 44 60 67 115 142 132 151 167 184 194 199 205 207 206 203 202 204 202 206 207
340 16 31 335 358 5 83 25 9 10 355 357 355 354 10 32 28 22 22 17 19 22 20 16 28 39 44 69 89 95 100 143 181 190 199 206 207 206 203 205 206 204 203 208
341 328 332 305 326 339 314 348 340 338 344 347 351 354 360 12 27 21 20 15 14 18 13 19 21 25 25 52 71 75 82 100 107 121 156 193 211 205 200 200 205 206 209 212
357 312 337 278 326 310 283 307 319 318 324 330 338 342 349 359 359 10 11 6 10 13 9 12 17 16 17 32 47 50 52 60 93 120 135 155 170 180 190 188 188 217 221 223